TimeIST,TemperatureF,Dew PointF,Humidity,Sea Level PressureIn,VisibilityMPH,Wind Direction,Wind SpeedMPH,Gust SpeedMPH,PrecipitationIn,Events,Conditions,WindDirDegrees,DateUTC
12:10 AM,73.4,68.0,83,29.89,2.2,Calm,Calm,-,N/A,,Haze,0,2012-11-13 18:40:00
12:40 AM,73.4,66.2,78,29.89,2.2,Calm,Calm,-,N/A,,Haze,0,2012-11-13 19:10:00
1:10 AM,71.6,66.2,83,29.86,2.2,Calm,Calm,-,N/A,,Haze,0,2012-11-13 19:40:00
1:40 AM,71.6,66.2,83,29.86,2.2,Calm,Calm,-,N/A,,Haze,0,2012-11-13 20:10:00
2:10 AM,69.8,66.2,88,29.83,2.2,Calm,Calm,-,N/A,,Haze,0,2012-11-13 20:40:00
2:40 AM,69.8,66.2,88,29.83,2.2,Calm,Calm,-,N/A,,Haze,0,2012-11-13 21:10:00
3:10 AM,69.8,66.2,88,29.83,2.2,Calm,Calm,-,N/A,,Haze,0,2012-11-13 21:40:00
3:40 AM,69.8,66.2,88,29.83,2.2,Calm,Calm,-,N/A,,Haze,0,2012-11-13 22:10:00
4:10 AM,69.8,66.2,88,29.83,2.2,Calm,Calm,-,N/A,,Haze,0,2012-11-13 22:40:00
4:40 AM,69.8,66.2,88,29.83,2.2,Calm,Calm,-,N/A,,Haze,0,2012-11-13 23:10:00
5:10 AM,69.8,66.2,88,29.83,2.2,Calm,Calm,-,N/A,,Haze,0,2012-11-13 23:40:00
5:30 AM,71,66,81,29.87,2,NNW,2.3,,,,Haze,340,2012-11-14 00:00:00
5:40 AM,69.8,66.2,88,29.83,2.2,Calm,Calm,-,N/A,,Haze,0,2012-11-14 00:10:00
6:40 AM,71.6,64.4,78,29.86,1.6,Calm,Calm,-,N/A,,Partly Cloudy,0,2012-11-14 01:10:00
7:10 AM,73.4,66.2,78,29.86,1.6,Calm,Calm,-,N/A,,Partly Cloudy,0,2012-11-14 01:40:00
7:40 AM,75.2,64.4,69,29.89,1.6,North,4.6,-,N/A,,Partly Cloudy,350,2012-11-14 02:10:00
8:30 AM,78,65,57,29.93,2,North,2.3,,,,Scattered Clouds,0,2012-11-14 03:00:00
8:40 AM,78.8,66.2,65,29.89,2.2,NNE,9.2,-,N/A,,Haze,20,2012-11-14 03:10:00
9:10 AM,80.6,66.2,61,29.92,2.5,North,9.2,-,N/A,,Haze,360,2012-11-14 03:40:00
9:40 AM,82.4,66.2,58,29.92,2.5,NW,11.5,-,N/A,,Haze,310,2012-11-14 04:10:00
10:40 AM,84.2,66.2,55,29.89,3.1,NW,13.8,-,N/A,,Haze,320,2012-11-14 05:10:00
11:10 AM,84.2,66.2,55,29.89,3.1,NE,11.5,-,N/A,,Haze,50,2012-11-14 05:40:00
11:30 AM,85,68,47,29.92,2,NNE,6.9,,,,Mostly Cloudy,20,2012-11-14 06:00:00
11:40 AM,84.2,66.2,55,29.89,3.1,NNE,9.2,20.7,N/A,,Haze,20,2012-11-14 06:10:00
12:10 PM,84.2,68.0,58,29.86,3.1,North,9.2,20.7,N/A,,Haze,10,2012-11-14 06:40:00
12:40 PM,84.2,66.2,55,29.83,3.1,NNE,11.5,23.0,N/A,,Haze,20,2012-11-14 07:10:00
1:10 PM,84.2,66.2,55,29.83,3.7,NNE,11.5,23.0,N/A,,Scattered Clouds,30,2012-11-14 07:40:00
1:40 PM,84.2,64.4,51,29.80,3.7,North,13.8,-,N/A,,Scattered Clouds,360,2012-11-14 08:10:00
2:10 PM,84.2,64.4,51,29.80,3.7,North,13.8,-,N/A,,Scattered Clouds,360,2012-11-14 08:40:00
2:30 PM,84,64,41,29.83,6,North,5.8,,,,Partly Cloudy,0,2012-11-14 09:00:00
2:40 PM,84.2,66.2,55,29.80,3.7,North,15.0,-,N/A,,Scattered Clouds,350,2012-11-14 09:10:00
3:10 PM,84.2,66.2,55,29.80,3.7,NNE,15.0,-,N/A,,Scattered Clouds,20,2012-11-14 09:40:00
3:40 PM,84.2,68.0,58,29.77,3.7,NNE,13.8,-,N/A,,Scattered Clouds,30,2012-11-14 10:10:00
4:10 PM,82.4,64.4,54,29.77,3.7,NNE,13.8,-,N/A,,Scattered Clouds,20,2012-11-14 10:40:00
4:40 PM,82.4,64.4,54,29.77,3.7,North,11.5,-,N/A,,Partly Cloudy,10,2012-11-14 11:10:00
5:10 PM,80.6,68.0,65,29.77,3.7,North,15.0,-,N/A,,Scattered Clouds,360,2012-11-14 11:40:00
5:30 PM,81,67,53,29.81,2,NNE,6.9,,,,Scattered Clouds,20,2012-11-14 12:00:00
5:40 PM,80.6,68.0,65,29.80,3.7,NNE,11.5,-,N/A,,Partly Cloudy,20,2012-11-14 12:10:00
6:40 PM,78.8,64.4,61,29.80,3.1,West,8.1,-,N/A,,Haze,270,2012-11-14 13:10:00
7:10 PM,78.8,64.4,61,29.83,3.1,NNE,6.9,-,N/A,,Haze,20,2012-11-14 13:40:00
7:40 PM,77.0,64.4,65,29.83,3.1,NNE,6.9,-,N/A,,Haze,20,2012-11-14 14:10:00
8:10 PM,77.0,64.4,65,29.86,3.1,North,4.6,-,N/A,,Haze,350,2012-11-14 14:40:00
8:30 PM,76,64,59,29.89,2,Calm,Calm,,,,Scattered Clouds,,2012-11-14 15:00:00
8:40 PM,77.0,64.4,65,29.86,3.1,NNW,3.5,-,N/A,,Haze,340,2012-11-14 15:10:00
9:10 PM,75.2,62.6,65,29.86,3.1,Calm,Calm,-,N/A,,Haze,0,2012-11-14 15:40:00
9:40 PM,75.2,62.6,65,29.86,3.1,Calm,Calm,-,N/A,,Haze,0,2012-11-14 16:10:00
10:10 PM,73.4,64.4,73,29.86,3.1,NW,4.6,-,N/A,,Haze,320,2012-11-14 16:40:00
10:40 PM,73.4,64.4,73,29.86,3.1,NW,4.6,-,N/A,,Haze,320,2012-11-14 17:10:00
11:10 PM,71.6,64.4,78,29.86,3.1,NW,4.6,-,N/A,,Haze,310,2012-11-14 17:40:00
11:30 PM,73,66,72,29.88,2,Calm,Calm,,,,Scattered Clouds,,2012-11-14 18:00:00
11:40 PM,71.6,64.4,78,29.86,3.1,NW,4.6,-,N/A,,Haze,320,2012-11-14 18:10:00